Wind_Speed
41 50 54 60 60 55 57 57 55 54 54 52 50 49 47 43 41 36 31 30 24 21 25 24 23 17 15 12 9 7 8 5 2 4 11 16 20 22 28 27 36 38 41 44
38 41 52 60 60 57 57 58 61 58 57 56 53 51 54 47 42 38 35 31 27 18 16 14 17 17 17 15 12 11 10 8 4 3 9 16 19 21 24 27 30 33 36 40
38 47 50 51 56 55 57 59 62 62 60 59 57 54 53 45 39 36 36 34 31 26 23 14 16 18 18 17 14 16 14 11 7 2 8 15 18 20 20 26 32 32 30 35
42 50 45 45 44 47 52 58 60 60 58 59 57 56 53 48 45 40 37 36 33 32 33 32 28 21 19 17 19 20 19 15 10 5 8 14 19 19 17 19 23 27 29 31
44 53 45 41 45 45 48 54 56 55 55 56 56 55 54 50 44 43 39 37 38 36 33 30 27 25 21 19 22 24 22 18 13 8 7 13 18 20 20 26 27 24 27 30
56 54 47 43 48 45 53 51 50 49 51 53 56 55 50 47 43 43 40 39 39 38 35 31 28 26 23 23 27 27 24 21 16 11 8 10 14 17 19 23 24 26 26 28
61 58 50 50 48 44 49 47 45 45 43 49 51 49 48 41 42 42 41 39 38 37 34 31 33 30 26 31 34 31 28 23 18 13 10 8 10 13 15 18 21 22 25 29
66 63 58 52 50 46 49 48 44 43 48 47 45 46 44 40 40 38 36 35 37 36 35 34 31 30 29 32 36 34 31 25 20 15 11 8 6 9 11 12 16 18 21 26
72 64 65 60 57 53 50 43 52 51 53 50 44 44 39 36 34 32 35 35 32 31 33 27 30 28 30 36 37 38 34 28 22 18 14 10 6 4 5 8 12 15 19 22
75 69 69 67 62 53 51 54 52 49 50 47 43 48 44 37 34 33 29 27 30 32 29 29 32 29 32 36 37 37 35 31 24 21 17 12 8 5 2 4 8 12 16 20
81 76 74 71 60 55 55 52 47 47 51 45 40 42 45 44 35 38 29 33 35 36 33 31 31 30 33 36 37 39 37 34 30 25 20 16 11 8 3 3 6 10 15 18
89 82 82 69 68 66 58 57 55 45 47 46 44 47 51 48 42 41 33 40 41 36 35 33 32 30 32 36 40 42 39 37 32 27 24 20 14 11 8 7 8 9 12 18
94 89 86 80 75 71 62 55 55 48 47 46 42 52 50 45 43 44 43 43 48 41 34 33 34 35 37 38 41 42 42 39 35 31 27 23 18 15 12 12 13 12 14 18
99 94 91 85 78 71 63 58 54 52 45 48 43 53 50 51 49 49 49 46 47 47 42 40 37 38 40 40 41 43 42 40 38 33 29 27 22 18 16 16 16 15 16 18
103 99 95 91 86 75 71 65 58 56 53 48 54 53 50 51 55 53 50 47 47 49 43 38 35 34 37 43 42 44 43 43 41 37 33 30 27 23 20 20 20 18 18 20
106 103 100 97 91 82 77 73 64 60 61 54 52 53 57 54 51 52 53 50 49 50 50 45 36 36 29 35 42 46 46 47 45 41 37 34 32 27 24 24 23 22 23 23
109 105 105 102 97 89 83 79 73 66 63 60 56 56 55 47 45 46 50 55 51 51 50 47 40 34 29 29 38 45 48 49 49 45 40 39 35 30 27 28 26 26 26 26
112 108 107 107 104 96 88 84 80 71 65 64 63 60 54 48 48 48 51 52 48 48 46 47 50 46 36 35 37 44 48 50 50 47 45 44 40 35 30 31 30 29 29 29
116 115 111 113 109 101 95 89 83 75 66 65 66 65 58 53 50 51 49 48 45 47 43 41 43 44 46 40 42 45 51 55 53 51 51 49 45 39 35 34 33 32 32 32
119 119 115 113 113 108 98 93 85 78 71 67 66 67 64 59 53 53 52 51 49 44 45 44 46 42 41 36 35 42 50 54 58 57 57 53 48 41 40 37 36 36 34 35
122 124 120 116 115 111 104 98 90 86 76 70 68 67 65 61 57 57 53 51 52 46 45 47 40 41 38 34 37 42 49 55 63 63 58 53 47 45 44 39 40 38 37 37
121 124 122 117 115 115 110 102 96 85 81 75 71 65 65 61 61 59 56 53 48 47 45 45 45 35 31 34 34 39 48 57 58 60 57 54 50 47 44 44 42 41 39 39
119 125 125 120 117 116 114 107 98 92 86 80 74 70 60 64 62 61 56 57 53 53 41 44 49 43 37 35 37 37 44 47 56 60 60 55 51 48 47 47 44 43 42 42
111 123 128 124 121 121 118 111 103 95 88 84 77 73 68 53 63 60 59 65 64 60 48 54 48 46 44 43 41 45 42 48 54 56 58 57 55 52 50 50 47 45 44 44
109 120 127 127 122 122 120 115 107 99 92 87 82 77 70 64 52 60 62 72 71 63 56 57 59 51 51 51 48 49 47 50 54 55 55 57 56 55 53 53 51 48 48 47
107 117 128 126 125 122 120 117 109 102 95 90 86 82 77 69 62 58 66 72 80 73 65 61 55 52 50 51 53 53 54 56 56 56 54 56 56 56 55 54 53 50 50 51
Wind_Direction
220 221 217 220 220 218 220 223 229 233 236 238 241 244 244 239 233 237 238 242 239 253 263 263 266 254 261 272 246 199 182 178 197 35 44 44 50 43 44 45 48 46 45 48
223 222 221 223 223 221 220 222 226 229 231 234 237 240 243 242 237 233 235 241 241 236 257 240 240 255 253 254 237 195 183 194 207 51 51 54 57 51 47 48 47 46 44 45
223 224 218 221 224 220 221 222 225 227 228 232 235 238 243 244 240 238 241 239 241 232 226 234 269 262 250 251 231 193 188 197 194 135 67 64 63 57 54 52 48 45 42 41
224 232 227 220 221 221 222 222 223 226 227 232 233 236 236 238 239 236 235 241 239 234 239 246 259 264 247 240 216 194 190 195 196 163 84 74 69 62 52 43 35 40 41 39
224 230 228 226 225 218 220 222 222 226 229 231 234 234 236 237 238 238 232 233 238 238 240 246 252 256 233 224 212 196 192 194 199 181 122 87 74 64 53 53 49 47 38 40
231 235 231 225 228 219 225 224 224 224 226 229 233 236 236 236 233 236 236 234 231 233 239 237 245 240 223 206 198 196 195 195 201 190 146 104 81 65 50 50 48 43 40 39
229 232 232 230 228 221 228 229 228 227 228 229 231 230 235 234 232 231 234 232 228 229 226 239 240 223 218 201 192 194 199 197 201 192 160 128 92 73 57 46 47 41 36 35
222 228 230 230 228 223 223 223 224 218 224 230 231 234 232 226 229 230 231 223 229 228 243 238 226 221 216 209 192 191 197 198 203 195 177 155 116 85 65 44 39 31 27 29
222 222 228 228 227 223 223 223 222 217 217 223 226 232 230 232 224 220 224 221 229 234 230 224 220 212 212 199 199 192 195 197 200 197 192 182 163 122 73 45 28 20 16 19
223 223 228 228 226 227 223 222 222 220 226 223 217 223 227 221 226 215 224 226 216 213 217 221 217 200 206 203 200 198 195 199 198 202 203 198 201 195 111 29 16 5 7 5
220 220 224 227 231 231 228 225 226 221 224 226 214 212 217 213 224 238 214 211 215 207 205 205 205 197 205 203 203 202 201 199 202 201 207 208 216 229 240 306 345 350 352 357
216 217 223 222 224 225 227 224 224 219 222 222 218 208 208 211 225 229 219 209 204 198 199 193 198 197 203 206 204 207 207 205 206 207 210 215 222 237 256 282 304 329 342 348
215 214 219 219 220 223 225 225 226 222 219 221 217 214 213 219 225 223 221 215 205 201 200 196 192 199 202 208 207 210 211 213 209 211 214 220 225 240 258 277 292 313 335 343
214 213 215 218 219 221 223 226 224 224 222 220 211 214 219 218 220 221 220 219 210 208 210 211 209 197 201 207 209 213 217 219 219 217 219 225 229 239 255 271 284 303 320 332
212 212 211 217 218 214 219 220 221 219 218 220 216 215 219 216 214 215 223 221 217 212 213 214 212 202 204 208 211 214 220 223 225 223 223 228 232 240 254 267 279 294 307 318
211 210 210 214 217 213 214 216 217 216 215 214 216 215 218 215 210 214 221 226 221 219 218 215 220 224 206 221 218 217 218 223 226 227 227 231 233 239 251 264 277 289 301 309
210 208 209 211 216 213 212 214 214 214 215 214 214 215 215 209 208 214 220 226 225 222 222 214 214 217 222 224 223 224 221 224 229 230 232 236 239 240 249 261 273 284 295 305
207 208 208 209 213 213 211 212 213 211 211 213 214 217 215 214 215 212 220 226 228 227 231 226 222 224 235 241 242 223 224 228 233 234 234 238 241 243 248 258 268 280 289 298
207 207 206 208 211 213 211 212 212 212 208 212 215 217 217 218 218 215 220 226 226 225 229 228 224 225 237 240 236 219 219 229 233 236 236 238 241 244 249 256 265 274 283 292
207 205 206 207 209 212 211 211 211 211 208 211 214 218 217 217 216 216 215 221 223 224 225 229 226 220 213 225 232 218 217 227 234 235 237 240 242 246 251 256 264 271 279 288
206 204 204 206 207 211 212 211 210 210 208 209 213 216 217 213 213 216 218 217 223 227 223 222 204 216 219 222 227 216 217 225 233 235 237 240 244 247 251 257 263 271 278 286
205 202 204 204 206 209 212 211 210 208 208 208 212 215 215 211 211 213 216 219 215 219 217 221 209 209 222 221 221 222 219 225 231 236 239 242 244 248 253 257 262 269 276 283
204 201 201 203 205 208 211 211 210 207 208 209 211 215 213 214 211 213 213 218 210 209 214 218 214 217 225 233 232 225 227 230 237 238 238 241 245 249 254 258 263 269 274 280
202 200 199 201 203 206 210 211 210 208 207 209 210 215 214 217 214 214 210 215 212 208 214 221 220 225 233 234 234 239 235 228 235 242 244 244 247 249 253 258 262 266 271 277
200 198 198 199 203 206 208 210 209 208 206 208 210 213 215 213 212 214 211 213 217 219 215 221 228 233 235 241 243 244 240 234 228 231 239 244 246 250 253 258 262 266 271 276
198 198 198 198 202 205 207 210 210 209 207 206 210 213 216 216 216 211 214 215 220 223 223 223 230 229 235 239 245 249 245 234 228 225 232 239 243 247 251 257 262 265 269 274
Height
10881 10888 10894 10894 10907 10920 10928 10931 10934 10940 10943 10949 10955 10960 10964 10971 10976 10980 10984 10987 10988 10990 10992 10996 10998 10999 10999 10999 10999 11000 11002 11003 11003 11002 11000 10998 10994 10993 10989 10986 10979 10975 10972 10967
10878 10881 10881 10889 10900 10909 10916 10922 10925 10932 10936 10940 10946 10949 10951 10961 10970 10975 10978 10981 10983 10986 10988 10990 10994 10996 10996 10997 10998 10999 11001 11003 11003 11003 11001 10999 10996 10995 10993 10988 10982 10979 10976 10971
10871 10866 10870 10881 10890 10899 10903 10908 10914 10920 10926 10932 10938 10944 10946 10956 10964 10972 10976 10977 10980 10982 10984 10987 10991 10992 10993 10995 10996 10997 10999 11003 11004 11004 11002 11001 10998 10997 10996 10991 10986 10982 10980 10976
10860 10855 10869 10875 10883 10890 10894 10896 10904 10910 10918 10924 10933 10938 10944 10947 10952 10960 10968 10972 10975 10977 10979 10982 10986 10989 10990 10992 10994 10996 10998 11002 11003 11004 11002 11002 11000 10998 10998 10993 10989 10987 10984 10980
10854 10846 10858 10869 10872 10879 10880 10885 10895 10902 10910 10917 10924 10930 10937 10944 10949 10954 10961 10963 10968 10971 10974 10977 10980 10985 10986 10989 10993 10995 10997 11000 11003 11003 11003 11003 11001 11000 10999 10994 10990 10989 10987 10982
10839 10841 10852 10861 10860 10872 10869 10878 10887 10895 10901 10909 10912 10921 10931 10939 10943 10947 10953 10958 10962 10966 10969 10973 10976 10979 10981 10986 10991 10994 10997 10999 11001 11003 11003 11003 11002 11000 10999 10996 10993 10991 10989 10985
10828 10835 10845 10849 10853 10863 10865 10874 10885 10890 10897 10897 10905 10914 10921 10932 10935 10939 10945 10952 10955 10960 10964 10966 10969 10973 10976 10978 10984 10991 10996 10998 11000 11001 11002 11002 11001 11001 10999 10998 10996 10994 10993 10987
10816 10825 10834 10842 10849 10856 10857 10865 10878 10886 10889 10892 10902 10907 10914 10922 10929 10935 10936 10944 10947 10954 10958 10960 10963 10968 10971 10975 10978 10985 10993 10995 10998 11000 11001 11001 11000 11001 11000 10999 10997 10996 10994 10988
10805 10818 10821 10830 10835 10846 10852 10864 10864 10871 10876 10883 10897 10901 10909 10916 10923 10928 10929 10937 10942 10947 10951 10955 10958 10962 10967 10971 10975 10979 10986 10992 10995 10997 10999 10999 10999 11000 11000 10998 10997 10996 10993 10989
10794 10807 10812 10817 10825 10840 10848 10846 10855 10868 10871 10880 10893 10898 10903 10910 10914 10921 10927 10931 10936 10940 10945 10950 10953 10958 10963 10967 10972 10978 10982 10987 10991 10995 10997 10997 10997 10998 10998 10997 10996 10994 10992 10989
10779 10791 10796 10805 10827 10833 10837 10847 10853 10861 10864 10876 10884 10895 10899 10904 10909 10911 10922 10925 10930 10935 10939 10945 10950 10953 10960 10966 10971 10974 10978 10981 10985 10990 10993 10994 10995 10995 10996 10995 10994 10993 10991 10988
10758 10775 10777 10803 10809 10815 10827 10835 10840 10852 10864 10871 10876 10886 10890 10897 10902 10906 10915 10920 10926 10933 10935 10939 10945 10950 10957 10960 10966 10970 10974 10976 10981 10985 10989 10991 10991 10992 10993 10992 10992 10991 10989 10986
10740 10756 10765 10780 10789 10802 10817 10827 10836 10846 10850 10863 10873 10882 10886 10892 10896 10900 10908 10916 10921 10929 10934 10937 10939 10943 10949 10955 10959 10965 10970 10975 10976 10980 10984 10986 10988 10989 10990 10989 10988 10987 10986 10984
10720 10739 10749 10764 10779 10795 10810 10819 10828 10838 10849 10854 10868 10872 10878 10885 10891 10896 10901 10908 10915 10922 10929 10932 10936 10936 10942 10949 10953 10960 10966 10972 10974 10977 10979 10982 10984 10985 10986 10986 10985 10984 10983 10982
10699 10720 10735 10747 10760 10781 10792 10803 10814 10827 10838 10844 10853 10861 10867 10877 10885 10890 10895 10903 10909 10916 10924 10930 10933 10934 10938 10943 10948 10954 10962 10968 10971 10973 10975 10978 10980 10981 10982 10982 10982 10982 10981 10980
10678 10699 10717 10728 10742 10763 10774 10785 10800 10812 10822 10835 10842 10854 10857 10865 10877 10887 10891 10896 10903 10909 10915 10923 10929 10935 10936 10941 10944 10948 10955 10962 10965 10968 10971 10973 10974 10977 10978 10978 10979 10978 10977 10976
10658 10682 10697 10709 10723 10743 10759 10769 10782 10796 10812 10825 10833 10840 10848 10861 10871 10879 10884 10887 10895 10902 10908 10915 10922 10927 10932 10935 10940 10945 10950 10957 10960 10964 10968 10967 10970 10972 10974 10974 10975 10974 10973 10972
10637 10660 10677 10689 10703 10723 10743 10756 10766 10783 10799 10812 10821 10830 10843 10853 10862 10869 10874 10880 10889 10896 10900 10906 10914 10920 10923 10928 10933 10939 10947 10952 10956 10960 10961 10962 10964 10967 10969 10969 10970 10970 10969 10968
10614 10633 10653 10666 10685 10708 10725 10738 10754 10773 10790 10801 10812 10822 10833 10842 10853 10861 10868 10873 10879 10885 10890 10895 10903 10909 10916 10919 10922 10929 10937 10943 10949 10953 10953 10954 10958 10962 10963 10963 10964 10964 10964 10962
10589 10612 10633 10653 10667 10687 10711 10726 10745 10765 10777 10789 10801 10810 10820 10832 10846 10851 10853 10862 10868 10875 10880 10887 10893 10900 10905 10909 10916 10920 10926 10934 10940 10942 10943 10946 10952 10956 10956 10958 10958 10957 10957 10956
10558 10586 10610 10629 10654 10673 10693 10712 10731 10745 10768 10778 10788 10798 10809 10823 10834 10839 10847 10852 10860 10866 10873 10879 10886 10890 10892 10899 10905 10908 10914 10922 10924 10930 10936 10942 10946 10948 10948 10952 10951 10950 10949 10948
10542 10570 10597 10620 10643 10657 10675 10697 10716 10742 10753 10767 10778 10787 10799 10812 10819 10826 10834 10843 10849 10859 10867 10872 10878 10879 10885 10890 10894 10899 10902 10902 10917 10925 10931 10934 10937 10939 10942 10943 10943 10942 10941 10939
10518 10549 10577 10604 10624 10645 10660 10680 10707 10721 10739 10754 10767 10776 10791 10800 10808 10816 10829 10833 10839 10849 10857 10863 10870 10871 10877 10881 10884 10887 10889 10901 10909 10915 10919 10923 10929 10932 10934 10933 10934 10934 10933 10931
10506 10533 10555 10585 10601 10621 10641 10665 10690 10712 10731 10744 10758 10767 10781 10790 10800 10811 10821 10822 10828 10836 10843 10851 10857 10864 10869 10873 10873 10876 10885 10888 10897 10906 10912 10915 10919 10921 10923 10924 10926 10925 10924 10922
10492 10518 10544 10566 10589 10606 10627 10649 10675 10697 10718 10733 10747 10757 10768 10779 10791 10804 10811 10814 10817 10826 10833 10839 10846 10851 10856 10860 10861 10869 10874 10880 10884 10891 10898 10904 10907 10910 10912 10913 10915 10916 10915 10913
10482 10506 10525 10555 10574 10593 10619 10637 10661 10685 10706 10722 10735 10746 10755 10768 10779 10791 10800 10804 10807 10815 10823 10829 10834 10841 10845 10847 10854 10859 10864 10867 10870 10876 10883 10886 10890 10895 10899 10901 10903 10905 10904 10903